Andover, VA

1:47 PM EDT on August 31, 2016 (GMT -0400)
Lonesome Pine

Weather History for KLNP - October, 2014

Change the Weather History Date:

Friday, October 3, 2014

  Actual Average Record
Temperature  
Mean Temperature 60 °F -  
Max Temperature 66 °F 66 °F 82 °F (2005)
Min Temperature 55 °F 47 °F 28 °F (2003)
Degree Days  
Heating Degree Days 4    
Growing Degree Days 10 (Base 50)    
Moisture  
Dew Point 56 °F    
Average Humidity 79    
Maximum Humidity 100    
Minimum Humidity 64    
Precipitation  
Precipitation 0.10 in - - ()
Sea Level Pressure  
Sea Level Pressure 29.92 in    
Wind  
Wind Speed 11 mph (SSW)    
Max Wind Speed 18 mph    
Max Gust Speed 30 mph    
Visibility 10 miles    
Events Rain    
Averages and records for this station are not official NWS values.
T = Trace of Precipitation, MM = Missing Value Source: NWS Daily Summary

Daily Weather History Graph

Daily Weather History Graph

Search for Another Location

Airport or City:

Trip Planner

Search our weather history database for the weather conditions in past years. The results will help you decide how hot, cold, wet, or windy it might be!

Date:

Astronomy

Oct. 03, 2014 Rise Set
Actual Time 7:27 AM EDT 7:10 PM EDT
Civil Twilight 7:01 AM EDT 7:36 PM EDT
Nautical Twilight 6:31 AM EDT 8:06 PM EDT
Astronomical Twilight 6:00 AM EDT 8:36 PM EDT
Moon 3:56 PM EDT (10/3) 1:53 AM EDT (10/3)
Length of Visible Light 12h 35m
Length of Day
11h 43m
Waxing Gibbous, 71% of the Moon is Illuminated
Oct 3
Waxing Gibbous
Oct 8
Full
Oct 15
Last Quarter
Oct 23
New
Oct 30
First Quarter

Hourly Weather History & Observations

Time (EDT) Temp. Dew Point Humidity Pressure Visibility Wind Dir Wind Speed Gust Speed Precip Events Conditions
12:15 AM 64.4 °F 53.6 °F 68% 30.07 in 10.0 mi SSE 8.1 mph - N/A   Clear
12:35 AM 64.4 °F 53.6 °F 68% 30.07 in 10.0 mi SSE 6.9 mph - N/A   Clear
12:55 AM 62.6 °F 53.6 °F 72% 30.06 in 10.0 mi SSE 8.1 mph - N/A   Clear
1:15 AM 64.4 °F 53.6 °F 68% 30.05 in 10.0 mi South 8.1 mph - N/A   Clear
1:35 AM 62.6 °F 53.6 °F 72% 30.04 in 10.0 mi SSE 5.8 mph - N/A   Clear
1:55 AM 62.6 °F 53.6 °F 72% 30.03 in 10.0 mi SSE 8.1 mph - N/A   Clear
2:15 AM 64.4 °F 53.6 °F 68% 30.03 in 10.0 mi South 8.1 mph - N/A   Clear
2:35 AM 64.4 °F 53.6 °F 68% 30.02 in 10.0 mi SSE 9.2 mph - N/A   Clear
2:55 AM 64.4 °F 53.6 °F 68% 30.01 in 10.0 mi SSE 11.5 mph 18.4 mph N/A   Clear
3:15 AM 64.4 °F 53.6 °F 68% 30.00 in 10.0 mi South 15.0 mph 19.6 mph N/A   Clear
3:35 AM 64.4 °F 53.6 °F 68% 29.98 in 10.0 mi South 13.8 mph 18.4 mph N/A   Clear
3:55 AM 64.4 °F 53.6 °F 68% 29.98 in 10.0 mi South 9.2 mph - N/A   Clear
4:15 AM 64.4 °F 53.6 °F 68% 29.98 in 10.0 mi South 12.7 mph 16.1 mph N/A   Clear
4:35 AM 64.4 °F 53.6 °F 68% 29.97 in 10.0 mi South 13.8 mph - N/A   Clear
4:55 AM 64.4 °F 53.6 °F 68% 29.96 in 10.0 mi South 16.1 mph 23.0 mph N/A   Clear
5:15 AM 64.4 °F 53.6 °F 68% 29.95 in 10.0 mi South 18.4 mph 25.3 mph N/A   Scattered Clouds
5:35 AM 64.4 °F 53.6 °F 68% 29.95 in 10.0 mi South 18.4 mph 24.2 mph N/A   Scattered Clouds
5:55 AM 64.4 °F 55.4 °F 73% 29.94 in 10.0 mi South 17.3 mph 24.2 mph N/A   Scattered Clouds
6:15 AM 64.4 °F 55.4 °F 73% 29.93 in 10.0 mi South 18.4 mph 21.9 mph N/A   Mostly Cloudy
6:35 AM 64.4 °F 55.4 °F 73% 29.93 in 10.0 mi South 17.3 mph 23.0 mph N/A   Scattered Clouds
6:55 AM 64.4 °F 55.4 °F 73% 29.94 in 10.0 mi South 17.3 mph 20.7 mph N/A   Clear
7:15 AM 64.4 °F 53.6 °F 68% 29.93 in 10.0 mi SSE 12.7 mph 20.7 mph N/A   Clear
7:35 AM 64.4 °F 53.6 °F 68% 29.92 in 10.0 mi South 18.4 mph 24.2 mph N/A   Clear
7:55 AM 64.4 °F 53.6 °F 68% 29.93 in 10.0 mi SSE 11.5 mph 21.9 mph N/A   Scattered Clouds
8:15 AM 64.4 °F 53.6 °F 68% 29.93 in 10.0 mi South 12.7 mph 19.6 mph N/A   Mostly Cloudy
8:35 AM 66.2 °F 53.6 °F 64% 29.93 in 10.0 mi SSE 17.3 mph 21.9 mph N/A   Mostly Cloudy
8:55 AM 64.4 °F 53.6 °F 68% 29.92 in 10.0 mi South 11.5 mph 18.4 mph N/A   Scattered Clouds
9:15 AM 66.2 °F 53.6 °F 64% 29.92 in 10.0 mi South 11.5 mph 19.6 mph N/A   Mostly Cloudy
9:35 AM 66.2 °F 53.6 °F 64% 29.92 in 10.0 mi SSE 12.7 mph 17.3 mph N/A   Overcast
9:55 AM 64.4 °F 55.4 °F 73% 29.92 in 10.0 mi South 17.3 mph 24.2 mph N/A Rain Light Rain
10:15 AM 62.6 °F 55.4 °F 77% 29.91 in 10.0 mi SSE 16.1 mph 27.6 mph N/A   Overcast
10:35 AM 62.6 °F 55.4 °F 77% 29.91 in 7.0 mi South 15.0 mph 21.9 mph N/A Rain Rain
10:55 AM 62.6 °F 60.8 °F 94% 29.91 in 7.0 mi South 12.7 mph 20.7 mph 0.02 in Rain Light Rain
11:15 AM 62.6 °F 60.8 °F 94% 29.91 in 10.0 mi South 12.7 mph 24.2 mph N/A   Light Drizzle
11:35 AM 64.4 °F 62.6 °F 94% 29.90 in 10.0 mi South 12.7 mph 24.2 mph N/A Rain Light Rain
11:55 AM 64.4 °F 62.6 °F 94% 29.91 in 5.0 mi South 15.0 mph 21.9 mph 0.01 in   Overcast
12:15 PM 64.4 °F 62.6 °F 94% 29.91 in 10.0 mi South 11.5 mph 17.3 mph N/A   Overcast
12:35 PM 64.4 °F 62.6 °F 94% 29.90 in 10.0 mi South 11.5 mph 21.9 mph N/A   Overcast
12:55 PM 64.4 °F 62.6 °F 94% 29.90 in 10.0 mi South 11.5 mph 17.3 mph N/A   Overcast
1:15 PM 64.4 °F 62.6 °F 94% 29.90 in 10.0 mi South 9.2 mph - N/A   Overcast
1:35 PM 64.4 °F 62.6 °F 94% 29.89 in 7.0 mi SSW 10.4 mph - N/A Rain Light Rain
1:55 PM 64.4 °F 62.6 °F 94% 29.89 in 10.0 mi SW 11.5 mph 23.0 mph N/A   Overcast
2:15 PM 62.6 °F 62.6 °F 100% 29.89 in 10.0 mi SW 12.7 mph 20.7 mph N/A   Overcast
2:35 PM 62.6 °F 62.6 °F 100% 29.88 in 10.0 mi SSW 13.8 mph 18.4 mph N/A   Overcast
2:55 PM 64.4 °F 60.8 °F 88% 29.87 in 10.0 mi SW 17.3 mph 27.6 mph N/A   Overcast
3:15 PM 64.4 °F 59.0 °F 83% 29.87 in 10.0 mi SW 16.1 mph 29.9 mph N/A   Overcast
3:35 PM 66.2 °F 59.0 °F 78% 29.85 in 10.0 mi SSW 13.8 mph 23.0 mph N/A   Overcast
3:55 PM 66.2 °F 57.2 °F 73% 29.86 in 10.0 mi WSW 17.3 mph 24.2 mph N/A   Mostly Cloudy
4:15 PM 66.2 °F 57.2 °F 73% 29.86 in 10.0 mi SW 16.1 mph 21.9 mph N/A   Mostly Cloudy
5:55 PM - - N/A% 29.86 in - SW 12.7 mph - N/A   Unknown
6:15 PM 66.2 °F 57.2 °F 73% 29.86 in 10.0 mi SW 11.5 mph - N/A   Scattered Clouds
6:35 PM 64.4 °F 57.2 °F 77% 29.85 in 10.0 mi SW 9.2 mph - N/A   Mostly Cloudy
6:55 PM 64.4 °F 57.2 °F 77% 29.85 in 1.0 mi SW 6.9 mph - N/A Rain Rain
7:15 PM 62.6 °F 60.8 °F 94% 29.86 in 5.0 mi SSW 6.9 mph - 0.01 in Rain Rain
7:35 PM 62.6 °F 60.8 °F 94% 29.86 in 10.0 mi SW 9.2 mph - N/A Rain Rain
7:55 PM 62.6 °F 60.8 °F 94% 29.85 in 10.0 mi SW 8.1 mph - 0.01 in Rain Light Rain
8:15 PM - - N/A% 29.86 in - SW 10.4 mph - N/A   Unknown
8:35 PM 60.8 °F 60.8 °F 100% 29.86 in 10.0 mi WSW 11.5 mph - N/A   Mostly Cloudy
8:55 PM 60.8 °F 60.8 °F 100% 29.86 in - WSW 8.1 mph - N/A   Unknown
9:10 PM 60.8 °F 60.8 °F 100% 29.86 in 10.0 mi West 5.8 mph - N/A   Unknown
9:35 PM 59.0 °F 57.2 °F 94% 29.88 in 7.0 mi WNW 9.2 mph 20.7 mph 0.06 in Rain Rain
9:55 PM 59.0 °F 55.4 °F 88% 29.88 in 10.0 mi West 10.4 mph - 0.06 in   Overcast
10:15 PM 59.0 °F 55.4 °F 88% 29.88 in 10.0 mi WNW 5.8 mph - N/A   Unknown
10:35 PM 59.0 °F 55.4 °F 88% 29.88 in 10.0 mi West 9.2 mph - N/A   Overcast
10:55 PM 57.2 °F 53.6 °F 88% 29.88 in 10.0 mi West 9.2 mph - N/A   Overcast
11:15 PM 57.2 °F 51.8 °F 82% 29.88 in 10.0 mi West 10.4 mph 16.1 mph N/A   Overcast
11:35 PM 55.4 °F 46.4 °F 72% 29.88 in 10.0 mi West 4.6 mph - N/A   Mostly Cloudy
11:55 PM 55.4 °F 46.4 °F 72% 29.88 in 10.0 mi WNW 9.2 mph - N/A   Scattered Clouds